Probability
15 13 14 11 5 1 2 3 3 2 1 0 1 2 4 3 2 3 4 3 3 3 3 4 3 2 2 2 2 2 1 0 1 2 2 2 4 6 7 7 6 5 6
15 13 13 11 6 2 1 1 1 1 0 0 1 2 4 3 3 3 4 3 3 3 4 3 2 2 1 1 1 1 0 0 0 1 1 2 3 5 6 6 5 4 5
16 13 11 10 7 4 2 1 0 0 0 0 1 2 3 3 4 4 3 3 3 3 3 2 2 2 1 0 0 0 0 0 1 1 0 1 2 4 5 4 3 3 3
17 14 12 11 8 6 4 3 1 1 1 0 1 1 1 2 3 4 2 2 2 3 3 2 3 3 1 0 0 0 0 1 3 2 0 0 1 3 4 3 2 2 2
18 17 16 13 9 7 6 4 3 4 3 1 0 0 0 0 1 2 1 1 1 2 2 3 5 5 2 0 0 0 0 1 3 2 0 0 0 2 4 4 2 2 2
20 20 19 16 12 9 8 5 4 5 4 2 1 0 0 0 0 0 1 1 0 1 1 2 5 5 2 0 0 0 0 1 1 0 0 0 1 2 3 3 3 2 1
23 22 21 20 16 12 9 6 5 5 4 3 2 1 1 0 0 0 1 1 1 0 0 1 3 3 1 0 0 0 1 2 1 0 0 0 1 2 3 3 3 1 1
26 24 22 21 17 12 9 6 6 6 5 4 3 3 1 0 0 0 1 1 1 0 0 1 2 1 0 0 0 0 1 1 0 0 0 0 1 1 2 3 3 2 1
26 24 21 18 15 11 8 7 6 7 7 6 5 3 2 0 0 0 0 1 1 1 1 2 3 2 1 1 0 1 1 1 0 0 0 1 1 1 1 3 3 2 1
23 22 20 18 13 7 7 8 8 7 7 6 5 3 1 0 0 0 0 0 1 2 3 3 4 4 3 2 2 1 1 1 0 0 0 1 2 1 1 2 3 2 1
20 21 23 22 14 7 8 11 10 8 7 6 5 3 1 0 1 1 1 2 2 3 4 5 5 5 4 3 4 3 2 0 0 0 0 1 3 3 2 1 1 1 1
23 25 28 27 19 12 13 16 12 8 7 6 3 1 0 1 2 2 3 5 5 4 5 5 5 4 3 3 5 6 3 1 0 0 1 2 5 5 3 2 1 0 0
27 29 32 31 26 22 22 21 15 11 10 7 5 3 2 2 3 3 5 7 8 7 5 4 4 4 3 2 4 6 5 2 1 1 3 5 7 6 4 2 1 0 0
28 29 32 34 34 34 33 28 21 16 14 11 10 10 8 6 5 6 7 9 10 9 7 6 6 5 3 3 4 6 6 3 2 1 4 7 7 7 5 3 1 0 0
29 31 33 37 42 46 44 37 29 23 18 16 17 18 15 11 9 10 10 11 12 10 8 8 8 5 3 3 4 6 6 5 4 3 3 6 7 7 7 4 3 1 1
34 36 40 44 50 52 48 41 34 28 23 23 24 24 20 16 15 14 12 13 14 11 9 10 9 5 3 3 5 7 7 7 6 4 4 5 6 7 7 7 5 4 3
41 43 44 47 53 54 48 42 36 29 26 28 29 27 22 19 17 16 14 15 14 11 9 10 10 6 3 4 7 10 10 9 8 6 6 5 4 5 7 8 7 6 5
46 47 44 44 51 52 46 42 36 30 28 29 29 27 23 18 16 15 15 15 13 10 9 10 10 7 5 6 10 13 13 13 10 9 8 6 4 4 7 9 9 8 6
48 48 44 44 48 47 42 39 36 33 31 28 27 25 22 17 14 14 15 15 12 9 9 10 10 9 8 9 12 13 14 15 13 10 8 7 6 7 8 9 8 7 7
49 48 46 45 46 43 41 38 36 36 34 29 25 23 20 16 14 15 14 13 10 8 8 10 11 11 10 9 8 10 12 13 12 11 10 9 9 10 11 9 7 7 9
50 49 47 47 46 43 40 39 37 37 36 30 24 21 20 16 15 15 14 12 9 7 7 9 10 10 10 7 4 5 8 10 12 13 13 12 10 10 11 10 8 8 10
49 48 48 49 46 42 40 38 36 36 34 29 24 23 22 19 16 14 13 13 10 9 10 11 10 9 8 6 3 3 5 8 11 12 12 12 11 10 10 10 10 10 11
46 45 46 47 44 42 40 35 32 32 30 26 24 24 22 20 18 14 14 14 14 14 14 15 12 9 7 5 3 3 4 7 8 9 10 11 11 11 11 11 11 11 12
42 43 43 43 42 41 37 31 27 27 25 23 22 21 19 18 18 15 13 15 17 16 16 15 12 10 7 5 4 5 7 8 8 8 9 10 11 12 13 12 11 11 12
39 40 41 41 41 38 33 30 28 26 23 20 18 16 15 16 15 13 13 17 18 15 14 14 12 11 9 7 5 6 8 8 8 7 8 9 10 12 13 11 10 10 11
35 37 39 40 40 37 33 32 31 27 23 20 16 14 14 14 13 11 14 18 19 14 13 15 15 12 11 9 7 6 6 6 6 6 6 7 8 10 11 10 10 10 10
Wind_Speed
14 15 15 13 11 10 10 9 9 8 8 8 9 9 9 9 9 8 8 9 9 9 9 9 9 9 9 9 9 10 10 10 10 11 12 12 12 12 11 12 11 10 13
17 15 16 14 12 11 10 10 9 8 8 8 8 8 8 8 8 8 8 8 8 8 8 8 8 8 8 8 8 9 9 9 9 10 11 11 12 11 11 12 11 9 12
17 15 15 14 12 11 10 9 9 8 8 8 8 8 7 7 7 7 7 7 7 7 7 8 8 8 7 7 7 7 7 8 8 8 7 7 9 11 11 12 13 13 12
16 13 14 14 12 11 10 9 8 8 8 8 8 7 7 7 6 7 7 7 7 7 7 7 7 7 7 6 6 6 5 5 5 5 3 6 7 10 11 12 12 12 11
15 14 15 14 12 11 10 9 9 9 8 7 7 7 7 7 6 6 6 6 6 6 6 6 6 6 6 6 5 5 4 3 3 3 4 6 6 10 10 11 12 11 11
15 15 15 14 12 11 10 10 9 8 8 7 7 7 7 7 6 6 5 5 5 6 6 6 6 6 5 5 4 3 2 1 2 2 5 6 7 10 10 10 10 10 10
14 14 14 14 12 11 10 10 9 8 7 7 7 6 6 6 6 6 5 5 5 5 6 5 5 5 5 4 3 1 1 1 2 3 6 6 7 10 10 10 9 9 9
15 14 13 14 13 12 11 10 8 8 7 7 6 6 6 5 5 5 5 5 5 4 4 5 5 5 4 3 2 1 1 2 2 5 6 7 9 9 8 9 8 8 8
14 13 11 11 11 11 10 9 9 8 8 7 6 6 5 5 5 5 5 5 5 5 5 5 5 4 4 3 3 3 3 3 0 2 6 6 9 9 8 8 8 8 8
12 12 11 10 10 9 9 10 9 8 8 7 7 6 6 6 6 6 5 5 5 4 4 3 4 4 4 3 4 4 3 2 2 3 4 7 10 9 8 8 8 8 8
9 9 10 10 9 9 9 10 9 8 7 7 7 7 6 5 6 6 6 7 6 5 4 4 4 4 4 5 6 5 4 2 3 3 4 8 10 9 8 7 7 7 8
7 7 8 8 7 6 6 7 6 6 6 6 4 5 4 3 2 4 8 8 7 6 5 6 5 5 5 4 6 7 3 3 3 4 5 10 9 9 8 8 7 7 8
7 5 7 6 4 4 4 5 3 3 4 4 4 4 3 2 2 3 3 4 5 6 4 5 5 3 3 2 3 3 2 2 2 4 6 10 9 9 9 8 7 7 7
7 5 6 6 3 3 3 2 3 3 3 3 3 2 2 1 1 2 2 2 2 2 3 2 2 1 2 2 2 2 2 2 2 3 6 11 10 10 9 8 7 7 7
6 6 6 5 4 2 2 1 2 2 3 3 2 2 2 2 1 1 1 2 2 2 2 2 1 1 2 1 1 1 2 2 4 4 4 10 10 9 9 8 7 6 7
5 5 5 6 4 3 2 1 1 2 2 2 2 3 2 2 1 1 1 1 1 1 1 1 1 1 1 1 1 2 1 2 3 5 4 6 9 9 9 8 8 7 7
5 5 4 5 5 3 2 2 1 1 2 2 2 3 3 2 2 1 1 1 1 1 2 1 1 1 1 1 1 2 2 2 3 4 4 4 5 8 9 8 8 7 8
5 5 4 4 5 3 2 1 1 1 1 1 2 3 3 2 2 1 1 1 1 1 2 2 2 1 0 0 0 1 1 2 2 3 3 4 4 4 7 10 9 8 8
5 4 4 3 4 3 2 2 1 1 1 1 2 2 3 3 2 2 2 1 2 1 1 2 2 1 1 0 1 1 1 1 2 2 3 3 4 4 4 8 10 9 8
5 5 4 3 3 2 2 1 1 1 1 1 2 2 3 2 2 2 2 2 2 2 1 1 1 1 1 1 1 0 1 1 1 1 2 2 3 4 5 5 6 6 9
6 5 4 3 3 2 2 2 2 2 1 1 2 3 2 2 2 2 1 2 2 2 2 2 2 2 1 1 0 0 1 1 2 2 1 2 3 3 4 5 4 3 4
5 5 4 4 3 2 2 1 1 2 1 2 1 2 2 2 2 3 2 2 2 2 2 2 1 1 1 1 1 1 1 1 1 2 2 2 2 2 2 3 3 3 3
6 5 5 4 4 2 2 2 1 2 1 2 2 2 2 2 2 1 2 2 2 2 2 2 2 2 1 2 1 1 1 1 0 1 2 2 2 1 2 2 3 3 4
6 6 5 5 4 3 2 2 2 2 2 2 2 2 2 2 2 2 2 2 1 1 2 2 2 1 1 1 1 1 1 2 1 1 0 1 2 2 2 1 2 2 3
6 6 5 5 4 3 2 2 2 2 2 2 2 2 2 2 2 2 2 2 2 1 2 1 1 1 1 1 0 0 1 1 1 1 1 1 1 1 2 2 2 2 3
6 6 6 5 4 4 3 3 3 3 2 2 2 2 2 1 1 2 2 2 2 2 2 2 2 1 1 1 0 0 0 1 1 1 1 1 1 1 1 1 2 2 3
Wind_Direction
110 116 116 112 107 106 105 101 99 95 89 85 80 75 74 75 76 78 78 80 84 91 102 104 103 102 100 99 102 104 106 107 107 108 109 111 111 112 110 113 110 107 107
114 117 117 115 112 110 107 105 102 97 92 88 84 81 78 76 77 79 82 82 84 90 100 103 102 101 100 103 108 113 115 114 117 119 120 116 111 111 111 112 108 110 112
112 120 121 118 116 114 110 107 105 103 98 92 87 84 82 80 80 83 83 84 87 93 99 102 101 100 100 104 112 117 121 127 134 134 136 122 111 113 114 112 110 112 113
117 126 122 122 119 117 115 110 108 106 103 97 93 91 86 82 81 86 86 87 88 95 100 105 102 101 101 105 113 119 126 144 154 151 135 111 110 112 116 116 116 116 116
120 120 123 127 122 122 120 117 113 110 108 105 101 99 97 91 86 86 89 91 90 96 106 109 106 104 105 111 116 122 134 163 176 165 124 109 107 116 120 123 123 124 120
124 122 128 129 127 127 126 123 120 117 114 110 108 104 103 99 95 90 89 95 95 99 106 112 113 111 111 112 117 125 148 185 194 138 107 108 111 124 129 130 131 130 125
122 123 131 133 132 131 130 130 129 125 122 119 116 112 109 109 107 102 94 101 107 106 111 114 120 117 117 118 118 134 207 278 165 131 105 106 118 128 129 133 139 136 132
120 123 130 135 136 136 137 138 138 135 133 131 126 122 119 120 122 120 111 104 118 112 119 127 128 126 125 133 155 201 241 257 132 109 107 108 121 130 136 138 142 140 137
121 127 138 142 141 142 143 144 145 145 144 146 144 139 139 142 143 137 130 124 117 113 114 126 134 141 152 166 193 217 240 262 260 121 115 117 132 139 141 143 146 146 144
127 136 143 146 147 153 153 154 155 157 158 161 161 161 164 164 164 162 157 146 141 143 144 143 154 162 175 193 214 229 250 261 179 126 114 126 136 141 143 145 147 150 150
128 137 142 148 156 166 161 155 161 166 170 173 176 183 187 190 179 174 172 160 162 171 178 180 181 186 191 207 223 232 246 219 145 114 108 131 139 142 146 148 149 154 154
131 138 134 144 158 161 152 149 169 170 168 190 176 180 192 200 177 154 154 166 175 186 195 204 204 198 209 204 207 218 228 189 145 122 124 136 138 140 146 150 153 158 158
136 132 127 130 136 143 135 154 173 171 162 191 181 182 186 183 164 146 154 167 182 194 202 196 204 208 200 192 181 190 199 161 136 125 135 140 142 146 147 152 159 161 162
136 136 122 120 124 121 123 157 161 157 161 172 172 187 165 177 176 159 157 169 185 185 180 188 182 194 222 207 196 185 166 134 120 118 136 140 142 148 152 157 166 171 172
144 144 130 129 121 104 96 170 155 154 167 161 161 173 173 179 171 165 166 173 199 167 170 173 165 193 233 190 196 171 137 130 141 127 133 149 150 155 158 160 163 165 173
140 139 135 135 128 124 134 205 142 163 156 152 154 159 166 160 148 156 168 176 201 157 151 165 165 198 222 195 190 140 132 153 141 138 144 154 162 166 168 170 171 172 180
140 134 135 140 135 146 164 193 188 183 170 152 137 136 150 158 153 172 179 187 187 178 171 169 168 202 215 209 150 143 158 150 139 143 155 159 169 178 179 179 178 176 180
144 140 145 147 140 148 156 208 212 189 146 152 135 138 148 155 160 180 190 185 187 185 172 176 172 157 187 195 146 192 142 147 152 160 168 170 169 169 181 185 184 185 187
124 129 132 122 132 147 169 191 194 165 156 155 133 139 152 164 171 182 182 178 207 181 178 193 143 135 179 173 214 187 164 157 158 168 166 175 166 166 168 180 186 190 190
116 120 127 128 131 148 149 187 181 166 157 139 124 131 139 153 166 181 171 177 199 181 178 173 135 170 198 205 243 158 179 174 170 159 171 175 169 173 169 171 180 192 188
121 125 136 140 136 145 160 194 182 175 167 149 138 130 136 153 169 174 161 165 190 182 176 164 172 203 198 164 172 184 161 178 170 158 174 185 177 175 171 172 172 173 180
132 137 133 130 138 154 158 172 174 162 165 152 131 128 145 161 178 175 170 191 173 173 158 154 156 199 208 186 195 168 164 176 207 180 178 187 171 178 171 167 167 161 163
137 141 147 147 150 165 166 161 138 126 140 128 127 133 156 160 167 168 166 184 177 173 162 171 172 193 198 206 197 164 151 153 151 143 180 164 162 172 160 176 177 162 160
143 143 139 144 148 158 159 152 154 148 154 147 136 133 152 142 154 166 171 165 165 156 155 179 180 194 196 217 209 179 153 133 135 129 264 178 167 163 170 182 155 161 148
147 145 142 139 144 150 159 148 143 134 132 123 122 124 144 150 162 165 164 156 155 153 146 149 127 157 182 206 234 185 155 160 174 156 195 204 180 173 175 177 169 163 152
147 144 142 138 143 147 152 138 141 143 141 134 133 140 156 147 168 176 171 154 157 161 154 143 144 163 159 148 9 323 125 142 191 174 176 187 159 195 180 167 163 165 149